| time (UTC) | temp F | wind direction | speed MPH | gust MPH | rain 1hr in | rain 24hr in | rain mn in | humidity % | barometer mb |
| 20260506174845 | 70 | 194 | 3.0 | 4.0 | 0.00 | 0.01 | 0.00 | 40 | 1003.4 |
| 20260506174145 | 71 | 195 | 3.0 | 3.0 | 0.00 | 0.01 | 0.00 | 40 | 1003.4 |
| 20260506173445 | 71 | 183 | 3.0 | 4.0 | 0.00 | 0.02 | 0.00 | 40 | 1003.4 |
| 20260506172745 | 72 | 166 | 3.0 | 4.0 | 0.00 | 0.02 | 0.00 | 40 | 1003.3 |
| 20260506170645 | 72 | 202 | 3.0 | 4.0 | 0.00 | 0.02 | 0.00 | 34 | 1002.9 |
| 20260506165945 | 73 | 240 | 3.0 | 4.0 | 0.00 | 0.02 | 0.00 | 35 | 1003.1 |
| 20260506164545 | 73 | 183 | 4.0 | 5.0 | 0.00 | 0.02 | 0.00 | 36 | 1002.9 |
| 20260506163845 | 74 | 176 | 4.0 | 5.0 | 0.00 | 0.02 | 0.00 | 35 | 1002.9 |
| 20260506163145 | 74 | 161 | 4.0 | 5.0 | 0.00 | 0.02 | 0.00 | 36 | 1002.8 |
| 20260506162445 | 74 | 188 | 4.0 | 5.0 | 0.00 | 0.02 | 0.00 | 35 | 1002.8 |
| 20260506161745 | 74 | 190 | 4.0 | 5.0 | 0.00 | 0.02 | 0.00 | 34 | 1002.8 |
| 20260506161045 | 75 | 195 | 4.0 | 4.0 | 0.00 | 0.02 | 0.00 | 32 | 1002.7 |
| 20260506160345 | 76 | 229 | 4.0 | 5.0 | 0.00 | 0.02 | 0.00 | 31 | 1002.7 |
| 20260506154945 | 74 | 179 | 4.0 | 6.0 | 0.00 | 0.02 | 0.00 | 34 | 1002.5 |
| 20260506152846 | 75 | 193 | 4.0 | 5.0 | 0.00 | 0.02 | 0.00 | 32 | 1002.6 |
| 20260506152145 | 75 | 187 | 4.0 | 7.0 | 0.00 | 0.02 | 0.00 | 34 | 1002.5 |
| 20260506150745 | 72 | 245 | 3.0 | 6.0 | 0.00 | 0.02 | 0.00 | 41 | 1002.6 |
| 20260506150045 | 70 | 220 | 5.0 | 8.0 | 0.00 | 0.02 | 0.00 | 40 | 1002.7 |
| 20260506145345 | 71 | 206 | 5.0 | 8.0 | 0.00 | 0.02 | 0.00 | 40 | 1002.7 |
| 20260506144645 | 70 | 208 | 5.0 | 8.0 | 0.00 | 0.02 | 0.00 | 40 | 1002.6 |
| 20260506143945 | 70 | 237 | 4.0 | 8.0 | 0.00 | 0.02 | 0.00 | 41 | 1002.9 |
| 20260506143245 | 67 | 242 | 5.0 | 8.0 | 0.00 | 0.02 | 0.00 | 43 | 1002.8 |
| 20260506141846 | 67 | 248 | 4.0 | 11.0 | 0.00 | 0.02 | 0.00 | 42 | 1002.9 |
| 20260506141146 | 68 | 258 | 3.0 | 4.0 | 0.00 | 0.02 | 0.00 | 41 | 1003.0 |
| 20260506140446 | 69 | 232 | 3.0 | 4.0 | 0.00 | 0.02 | 0.00 | 40 | 1003.0 |
| 20260506135746 | 69 | 224 | 4.0 | 7.0 | 0.00 | 0.02 | 0.00 | 40 | 1003.1 |
| 20260506135046 | 70 | 224 | 3.0 | 4.0 | 0.00 | 0.02 | 0.00 | 37 | 1003.1 |
| 20260506134346 | 71 | 197 | 4.0 | 6.0 | 0.00 | 0.02 | 0.00 | 36 | 1003.2 |
| 20260506133645 | 72 | 216 | 3.0 | 6.0 | 0.00 | 0.02 | 0.00 | 36 | 1003.2 |
| 20260506132946 | 70 | 219 | 2.0 | 3.0 | 0.00 | 0.02 | 0.00 | 41 | 1003.2 |
| 20260506132246 | 69 | 219 | 1.0 | 3.0 | 0.00 | 0.02 | 0.00 | 40 | 1003.3 |
| 20260506131546 | 68 | 238 | 1.0 | 3.0 | 0.00 | 0.02 | 0.00 | 40 | 1003.4 |
| 20260506130846 | 68 | 228 | 3.0 | 4.0 | 0.00 | 0.02 | 0.00 | 41 | 1003.4 |
| 20260506130146 | 67 | 226 | 3.0 | 4.0 | 0.00 | 0.02 | 0.00 | 41 | 1003.5 |
| 20260506124746 | 67 | 249 | 5.0 | 7.0 | 0.00 | 0.02 | 0.00 | 40 | 1003.5 |
| 20260506124046 | 69 | 222 | 4.0 | 7.0 | 0.00 | 0.02 | 0.00 | 37 | 1003.4 |
| 20260506123346 | 71 | 184 | 3.0 | 5.0 | 0.00 | 0.02 | 0.00 | 36 | 1003.4 |
| 20260506122646 | 71 | 185 | 5.0 | 8.0 | 0.00 | 0.02 | 0.00 | 37 | 1003.4 |
| 20260506121946 | 71 | 208 | 4.0 | 7.0 | 0.00 | 0.02 | 0.00 | 37 | 1003.4 |
| 20260506121246 | 71 | 202 | 3.0 | 5.0 | 0.00 | 0.02 | 0.00 | 39 | 1003.5 |
| 20260506120546 | 70 | 211 | 3.0 | 5.0 | 0.00 | 0.02 | 0.00 | 40 | 1003.5 |
| 20260506115846 | 70 | 193 | 4.0 | 6.0 | 0.00 | 0.02 | 0.00 | 38 | 1003.5 |
| 20260506115146 | 71 | 197 | 5.0 | 8.0 | 0.00 | 0.02 | 0.00 | 38 | 1003.4 |
| 20260506113746 | 71 | 175 | 5.0 | 6.0 | 0.00 | 0.02 | 0.00 | 36 | 1003.4 |
| 20260506113046 | 71 | 184 | 4.0 | 5.0 | 0.00 | 0.02 | 0.00 | 40 | 1003.5 |
| 20260506112346 | 71 | 188 | 4.0 | 7.0 | 0.00 | 0.02 | 0.00 | 37 | 1003.4 |
| 20260506111647 | 71 | 204 | 3.0 | 4.0 | 0.00 | 0.02 | 0.00 | 40 | 1003.5 |
| 20260506110946 | 70 | 196 | 3.0 | 5.0 | 0.00 | 0.02 | 0.00 | 40 | 1003.3 |
| 20260506104846 | 69 | 245 | 3.0 | 4.0 | 0.00 | 0.02 | 0.00 | 40 | 1003.5 |
| 20260506104146 | 69 | 241 | 3.0 | 4.0 | 0.00 | 0.02 | 0.00 | 40 | 1003.5 |
| 20260506103446 | 69 | 203 | 2.0 | 4.0 | 0.00 | 0.02 | 0.00 | 38 | 1003.6 |
| 20260506102746 | 68 | 325 | 2.0 | 6.0 | 0.00 | 0.02 | 0.00 | 39 | 1003.6 |
| 20260506102046 | 66 | 284 | 3.0 | 6.0 | 0.00 | 0.02 | 0.00 | 37 | 1003.7 |
| 20260506101346 | 67 | 205 | 3.0 | 6.0 | 0.00 | 0.02 | 0.00 | 38 | 1003.7 |
| 20260506100646 | 67 | 218 | 2.0 | 4.0 | 0.00 | 0.02 | 0.00 | 38 | 1003.7 |
| 20260506095947 | 66 | 197 | 4.0 | 5.0 | 0.00 | 0.02 | 0.00 | 39 | 1003.8 |
| 20260506095247 | 67 | 213 | 3.0 | 5.0 | 0.00 | 0.02 | 0.00 | 40 | 1003.9 |
| 20260506094546 | 66 | 244 | 2.0 | 4.0 | 0.00 | 0.02 | 0.00 | 41 | 1003.9 |
| 20260506093846 | 65 | 247 | 1.0 | 3.0 | 0.00 | 0.02 | 0.00 | 41 | 1003.9 |
| 20260506093147 | 64 | 227 | 3.0 | 4.0 | 0.00 | 0.02 | 0.00 | 43 | 1004.0 |
| 20260506092447 | 63 | 211 | 3.0 | 5.0 | 0.00 | 0.02 | 0.00 | 46 | 1003.9 |
| 20260506091747 | 63 | 210 | 3.0 | 5.0 | 0.00 | 0.02 | 0.00 | 47 | 1003.9 |
| 20260506091047 | 63 | 194 | 3.0 | 4.0 | 0.00 | 0.02 | 0.00 | 49 | 1003.8 |
| 20260506090347 | 63 | 191 | 3.0 | 5.0 | 0.00 | 0.02 | 0.00 | 47 | 1003.9 |
| 20260506085647 | 63 | 242 | 3.0 | 6.0 | 0.00 | 0.02 | 0.00 | 48 | 1003.8 |
| 20260506084947 | 62 | 350 | 3.0 | 7.0 | 0.00 | 0.02 | 0.00 | 47 | 1003.9 |
| 20260506084247 | 63 | 229 | 2.0 | 5.0 | 0.00 | 0.02 | 0.00 | 49 | 1003.8 |
| 20260506083547 | 62 | 305 | 2.0 | 5.0 | 0.00 | 0.02 | 0.00 | 47 | 1003.6 |
| 20260506082847 | 62 | 250 | 2.0 | 4.0 | 0.00 | 0.02 | 0.00 | 50 | 1003.6 |
| 20260506082148 | 62 | 241 | 3.0 | 4.0 | 0.00 | 0.02 | 0.00 | 50 | 1003.6 |
| 20260506081447 | 60 | 330 | 3.0 | 6.0 | 0.00 | 0.02 | 0.00 | 50 | 1003.5 |
| 20260506080747 | 60 | 314 | 2.0 | 4.0 | 0.00 | 0.02 | 0.00 | 51 | 1003.6 |
| 20260506072548 | 57 | 200 | 4.0 | 7.0 | 0.00 | 0.02 | 0.00 | 54 | 1003.1 |
| 20260506071848 | 57 | 214 | 5.0 | 7.0 | 0.00 | 0.02 | 0.00 | 55 | 1003.1 |
| 20260506071148 | 56 | 195 | 6.0 | 9.0 | 0.00 | 0.02 | 0.00 | 55 | 1003.2 |
| 20260506070447 | 55 | 190 | 8.0 | 9.0 | 0.00 | 0.02 | 0.00 | 56 | 1003.1 |
| 20260506062247 | 54 | 196 | 3.0 | 6.0 | 0.00 | 0.02 | 0.00 | 65 | 1002.8 |
| 20260506061547 | 53 | 196 | 2.0 | 3.0 | 0.00 | 0.02 | 0.00 | 68 | 1002.9 |
| 20260506060147 | 53 | 287 | 0.0 | 2.0 | 0.00 | 0.02 | 0.00 | 70 | 1002.9 |
| 20260506051248 | 51 | 0 | 0.0 | 0.0 | 0.00 | 0.02 | 0.00 | 70 | 1002.6 |
| 20260506050548 | 52 | 0 | 0.0 | 0.0 | 0.00 | 0.02 | 0.00 | 69 | 1002.6 |
| 20260506044448 | 52 | 0 | 0.0 | 0.0 | 0.00 | 0.02 | 0.00 | 70 | 1002.4 |
| 20260506043748 | 51 | 0 | 0.0 | 0.0 | 0.00 | 0.02 | 0.00 | 70 | 1002.3 |
| 20260506043048 | 51 | 0 | 0.0 | 0.0 | 0.00 | 0.02 | 0.00 | 70 | 1002.3 |
| 20260506042348 | 51 | 0 | 0.0 | 0.0 | 0.00 | 0.02 | 0.00 | 70 | 1002.3 |
| 20260506041648 | 51 | 0 | 0.0 | 0.0 | 0.00 | 0.02 | 0.00 | 70 | 1002.4 |
| 20260506040948 | 51 | 0 | 0.0 | 0.0 | 0.00 | 0.02 | 0.00 | 70 | 1002.3 |
| 20260506040249 | 51 | 0 | 0.0 | 0.0 | 0.00 | 0.02 | 0.00 | 69 | 1002.4 |
| 20260506034848 | 52 | 0 | 0.0 | 0.0 | 0.00 | 0.02 | 0.00 | 67 | 1002.4 |
| 20260506034149 | 52 | 0 | 0.0 | 0.0 | 0.00 | 0.02 | 0.00 | 67 | 1002.3 |
| 20260506033448 | 53 | 349 | 1.0 | 4.0 | 0.00 | 0.02 | 0.00 | 67 | 1002.4 |
| 20260506032748 | 53 | 317 | 1.0 | 4.0 | 0.00 | 0.02 | 0.00 | 67 | 1002.2 |
| 20260506032048 | 52 | 328 | 2.0 | 3.0 | 0.00 | 0.02 | 0.00 | 68 | 1002.3 |
| 20260506030648 | 53 | 340 | 1.0 | 3.0 | 0.00 | 0.02 | 0.00 | 67 | 1002.3 |
| 20260506025248 | 52 | 326 | 0.0 | 2.0 | 0.00 | 0.02 | 0.00 | 70 | 1002.3 |
| 20260506024548 | 52 | 0 | 0.0 | 0.0 | 0.00 | 0.02 | 0.00 | 70 | 1002.3 |
| 20260506023848 | 52 | 0 | 0.0 | 0.0 | 0.00 | 0.02 | 0.00 | 70 | 1002.4 |
| 20260506023148 | 52 | 0 | 0.0 | 0.0 | 0.00 | 0.02 | 0.00 | 69 | 1002.3 |
| 20260506022449 | 53 | 332 | 1.0 | 3.0 | 0.00 | 0.02 | 0.00 | 68 | 1002.3 |
| 20260506021748 | 53 | 1 | 0.0 | 3.0 | 0.00 | 0.02 | 0.00 | 67 | 1002.4 |
| 20260506021049 | 53 | 0 | 0.0 | 0.0 | 0.00 | 0.02 | 0.00 | 67 | 1002.4 |
| 20260506020348 | 54 | 0 | 0.0 | 0.0 | 0.00 | 0.02 | 0.00 | 65 | 1002.3 |
| 20260506015649 | 54 | 295 | 0.0 | 1.0 | 0.00 | 0.02 | 0.00 | 65 | 1002.2 |
| 20260506014948 | 54 | 0 | 0.0 | 0.0 | 0.00 | 0.02 | 0.00 | 65 | 1002.2 |
| 20260506014248 | 54 | 295 | 0.0 | 2.0 | 0.00 | 0.02 | 0.00 | 65 | 1002.0 |
| 20260506013549 | 54 | 285 | 0.0 | 2.0 | 0.00 | 0.02 | 0.00 | 65 | 1002.1 |
| 20260506012848 | 54 | 270 | 0.0 | 2.0 | 0.00 | 0.02 | 0.00 | 64 | 1002.2 |
| 20260506012148 | 54 | 0 | 0.0 | 0.0 | 0.00 | 0.02 | 0.00 | 61 | 1002.2 |
| 20260506011448 | 55 | 278 | 1.0 | 2.0 | 0.00 | 0.02 | 0.00 | 61 | 1002.2 |
| 20260506010749 | 55 | 285 | 1.0 | 2.0 | 0.00 | 0.02 | 0.00 | 62 | 1002.2 |
| 20260506010049 | 54 | 307 | 0.0 | 2.0 | 0.00 | 0.02 | 0.00 | 63 | 1002.3 |
| 20260506005349 | 54 | 0 | 0.0 | 0.0 | 0.00 | 0.02 | 0.00 | 63 | 1002.3 |
| 20260506004649 | 54 | 0 | 0.0 | 0.0 | 0.00 | 0.02 | 0.00 | 63 | 1002.2 |
| 20260506003949 | 55 | 302 | 1.0 | 2.0 | 0.00 | 0.02 | 0.00 | 63 | 1002.5 |
| 20260506003249 | 55 | 314 | 0.0 | 2.0 | 0.00 | 0.02 | 0.00 | 64 | 1002.5 |
| 20260506002549 | 55 | 314 | 0.0 | 2.0 | 0.00 | 0.02 | 0.00 | 64 | 1002.5 |
| 20260506001149 | 56 | 341 | 1.0 | 2.0 | 0.00 | 0.02 | 0.00 | 64 | 1002.6 |
| 20260506000449 | 56 | 314 | 0.0 | 2.0 | 0.00 | 0.02 | 0.00 | 66 | 1002.5 |
| 20260505235749 | 56 | 12 | 1.0 | 3.0 | 0.00 | 0.02 | 0.00 | 67 | 1002.5 |
| 20260505234349 | 56 | 294 | 0.0 | 2.0 | 0.00 | 0.02 | 0.00 | 70 | 1002.8 |
| 20260505233649 | 56 | 271 | 2.0 | 7.0 | 0.00 | 0.02 | 0.00 | 71 | 1002.6 |
| 20260505232949 | 56 | 349 | 2.0 | 7.0 | 0.00 | 0.02 | 0.00 | 72 | 1002.5 |
| 20260505232249 | 55 | 257 | 0.0 | 1.0 | 0.00 | 0.02 | 0.00 | 73 | 1002.5 |
| 20260505231549 | 55 | 270 | 0.0 | 1.0 | 0.00 | 0.02 | 0.00 | 73 | 1002.6 |
| 20260505230849 | 56 | 305 | 0.0 | 1.0 | 0.00 | 0.02 | 0.00 | 73 | 1002.5 |
| 20260505225449 | 57 | 338 | 1.0 | 8.0 | 0.00 | 0.02 | 0.00 | 73 | 1002.2 |
| 20260505224049 | 57 | 220 | 2.0 | 6.0 | 0.00 | 0.02 | 0.00 | 75 | 1002.7 |
| 20260505223349 | 57 | 352 | 2.0 | 9.0 | 0.00 | 0.02 | 0.00 | 75 | 1002.9 |
| 20260505222650 | 57 | 178 | 3.0 | 9.0 | 0.00 | 0.02 | 0.00 | 75 | 1003.1 |
| 20260505221949 | 57 | 206 | 1.0 | 2.0 | 0.00 | 0.02 | 0.00 | 74 | 1003.1 |
| 20260505220550 | 58 | 344 | 2.0 | 5.0 | 0.00 | 0.02 | 0.00 | 74 | 1003.2 |
| 20260505215849 | 58 | 244 | 3.0 | 5.0 | 0.00 | 0.02 | 0.02 | 74 | 1003.3 |
| 20260505215149 | 58 | 240 | 3.0 | 6.0 | 0.00 | 0.02 | 0.02 | 75 | 1003.3 |
| 20260505214449 | 58 | 266 | 3.0 | 9.0 | 0.00 | 0.02 | 0.02 | 76 | 1003.4 |
| 20260505213750 | 57 | 234 | 2.0 | 4.0 | 0.00 | 0.02 | 0.02 | 75 | 1003.3 |
| 20260505212349 | 57 | 268 | 1.0 | 4.0 | 0.00 | 0.02 | 0.02 | 73 | 1003.4 |
| 20260505210950 | 57 | 243 | 2.0 | 4.0 | 0.00 | 0.02 | 0.02 | 73 | 1003.2 |
| 20260505210249 | 56 | 295 | 1.0 | 4.0 | 0.00 | 0.02 | 0.02 | 74 | 1003.1 |
| 20260505204850 | 56 | 241 | 0.0 | 2.0 | 0.00 | 0.02 | 0.02 | 76 | 1003.0 |
| 20260505204150 | 56 | 0 | 0.0 | 0.0 | 0.00 | 0.02 | 0.02 | 76 | 1003.1 |
| 20260505203450 | 56 | 296 | 1.0 | 2.0 | 0.00 | 0.02 | 0.02 | 77 | 1003.1 |
| 20260505202050 | 55 | 290 | 0.0 | 2.0 | 0.00 | 0.02 | 0.02 | 77 | 1002.9 |
| 20260505201350 | 55 | 0 | 0.0 | 0.0 | 0.00 | 0.02 | 0.02 | 78 | 1003.1 |
| 20260505200650 | 55 | 0 | 0.0 | 0.0 | 0.00 | 0.02 | 0.02 | 78 | 1003.1 |
| 20260505195950 | 55 | 314 | 0.0 | 1.0 | 0.00 | 0.04 | 0.02 | 77 | 1003.1 |
| 20260505195250 | 55 | 0 | 0.0 | 0.0 | 0.00 | 0.04 | 0.02 | 77 | 1002.9 |
| 20260505194550 | 55 | 279 | 0.0 | 2.0 | 0.00 | 0.04 | 0.02 | 78 | 1002.8 |
| 20260505193854 | 55 | 279 | 0.0 | 2.0 | 0.00 | 0.08 | 0.02 | 78 | 1002.7 |
| 20260505192902 | 55 | 287 | 0.0 | 1.0 | 0.00 | 0.08 | 0.02 | 77 | 1002.5 |
| 20260505192201 | 55 | 321 | 0.0 | 2.0 | 0.00 | 0.08 | 0.02 | 77 | 1002.4 |
| 20260505191501 | 55 | 329 | 0.0 | 2.0 | 0.00 | 0.08 | 0.02 | 77 | 1002.2 |
| 20260505190801 | 55 | 0 | 0.0 | 0.0 | 0.00 | 0.08 | 0.02 | 76 | 1001.9 |
| 20260505185401 | 55 | 312 | 0.0 | 2.0 | 0.00 | 0.08 | 0.02 | 75 | 1002.2 |
| 20260505184701 | 56 | 277 | 0.0 | 1.0 | 0.01 | 0.08 | 0.02 | 75 | 1002.3 |
| 20260505184001 | 56 | 295 | 0.0 | 1.0 | 0.01 | 0.08 | 0.02 | 74 | 1002.0 |
| 20260505183301 | 56 | 291 | 1.0 | 2.0 | 0.02 | 0.08 | 0.02 | 73 | 1002.2 |
| 20260505182601 | 56 | 290 | 1.0 | 2.0 | 0.02 | 0.08 | 0.02 | 72 | 1002.2 |
| 20260505181901 | 56 | 284 | 0.0 | 2.0 | 0.02 | 0.08 | 0.02 | 71 | 1002.5 |
| 20260505181202 | 56 | 303 | 0.0 | 2.0 | 0.02 | 0.08 | 0.02 | 71 | 1002.7 |
| 20260505180501 | 57 | 326 | 1.0 | 6.0 | 0.02 | 0.08 | 0.02 | 66 | 1002.6 |
| 20260505175801 | 57 | 340 | 3.0 | 6.0 | 0.02 | 0.08 | 0.02 | 66 | 1002.5 |
| 20260505175102 | 58 | 336 | 4.0 | 19.0 | 0.01 | 0.07 | 0.01 | 61 | 1002.8 |